NOAA 16 DEB, 41251

Orbit data source: Space-Track

NOAA 16 DEB, 41251 is space debris in SSO originally from a launch on Thu, 21 Sep 2000 UTC launched from the Air Force Western Test Range (AFWTR). Debris objects in space refer to the collection of defunct objects orbiting the Earth. Examples of debris include non-operational satellites, rocket bodies, and fragments generated from explosions, collisions, or faulty payload assembly.

Loading next visibility...
Identifier
41251, 2000-055FB
Orbit
SSO
Country
Flag of USUS
Related business
Manufacturer
Unknown
Mission
Spacecraft
Bus & Motor
Unknown
Mass
Unknown
Launch date (UTC)
2000-09-21 (26 years ago)
Launch vehicle
Unknown
Launch site
Air Force Western Test Range (AFWTR)
Object type
Payload
Rocket body
Debris
Shape & HBR
Unknown shape, 0.1 m
Radar Cross Section
Medium (>0.1 m² and <1 m²)

Expand to show TLE details & history
Last TLE update: 2 days ago

TLE from 2 days ago
0 NOAA 16 DEB
1 41251U 00055FB  26252.66329570  .00006771  00000-0  19602-2 0  9999
2 41251  98.9642  37.9766 0038649 234.4162 125.3423 14.44378237554112
Epoch: 2026-09-09T15:55Z
TLE epoch observation values (Epoch: 2026-09-09T15:55:08.748Z)
Latitude
-0.00002°
Longitude
170.47803°
Altitude
763.005 km
Speed
7.464 km/s
True Right ascension
02h 31m 54s
True Declination
0° 00' 00"
Sunlit
Object was in full shadow at epoch
Visualization orbit readout
Latitude
Unknown
Longitude
Unknown
Altitude
Unknown
Speed
Unknown
Apparent Right ascension
Unknown
Apparent Declination
Unknown
Sunlit
N/A
Visualization observer readout
Local Sidereal Time
12:59:51
Azimuth
Unknown
Elevation
Unknown
Doppler factor
Unknown
Orbital elements
Apogee altitude
768.723 km
Perigee altitude
713.692 km
Semi-major axis
7,119.345 km
Eccentricity
0.00386
Inclination
98.9642°
RAAN
37.9766°
Arg. of periapsis
234.4162°
True anomaly
125.70256°
Mean anomaly
125.3423°
Eccentric anomaly
125.52253°
Mean motion
3.61313 °/min
Orbital period
99.64 mins
BSTAR
0.0019602
Loading maneuver chart data...
Computing Atmospheric mass density...
Loading historical data...
Loading historical data...
Loading historical data...
Loading historical data...
Loading historical data...
Loading historical data...
Loading historical data...

Documentation

Showing up to 5 results
|